sat.trackr.live / text

‹ back to catalog

GSAT0103 (GALILEO-FM3)

NORAD 38857 · 2012-055A

PAYLOAD ACTIVE UNKNOWN

§ Identity

Operator
Country
ESA
Launch date
2012-10-12
Launch site
FRGUI
Launch vehicle
Mass (kg)
RCS (m²)
8.57

Purposes: earth_obs, nav

External: N2YO · Heavens-Above · Gunter

§ Orbital elements

Epoch: 2026-09-11T16:53:55.952448Z

Period
844.71 min
Inclination
55.8600°
Eccentricity
0.0002046
Mean motion
1.70473471 rev/d
Perigee alt
23,216.2 km
Apogee alt
23,228.3 km
Semi-major
29,600.4 km
B*
0.0000e+0
RAAN
99.1697°
Arg perigee
315.2788°
Mean anomaly
44.7968°
Rev number
8,648

§ Raw data

GSAT0103 (GALILEO-FM3)1 38857U 12055A   26254.70411982  .00000015  00000+0  00000+0 0  99992 38857  55.8600  99.1697 0002046 315.2788  44.7968  1.70473471 86482

JSON: /api/v1/satellites/38857 · /tle

For live sub-satellite position, see the globe view (requires WebGL).

§ Visibility from observer

Set your observer location to see the next 7 days of passes ≥ 10°. The values pass through the URL so the page stays shareable.

No JS? Fill the form by hand. The geolocation button needs JavaScript.